User: anonymous   Login
Location: Vancouver
(49.2500°N, 123.1330°W)
Time: 03:29:53
(UTC-07:00)
Language:

Cosmos 1939 Rocket - Orbit

View from above orbital plane
View from above orbital plane
View from above satellite
View from above satellite

Ground track
Ground track

The orbit data is extracted from the following two-line orbital elements,

1 19046U 88032B   16209.84944570 -.00000479  00000-0 -31364-4 0  9993
2 19046  97.5777 259.2180 0039525 359.5698   0.5486 15.01963311523957
Epoch (UTC): 27 July 2016 20:23:12
Eccentricity: 0.0039525
inclination: 97.5777°
perigee height: 533 km
apogee height: 588 km
right ascension of ascending node: 259.2180°
argument of perigee: 359.5698°
revolutions per day: 15.01963311
mean anomaly at epoch: 0.5486°
orbit number at epoch: 52395

The dashed part of the orbit path shows where the satellite is in the earth's shadow,  

DLR